| time (UTC) | temp F | wind direction | speed MPH | gust MPH | rain 1hr in | rain 24hr in | rain mn in | humidity % | barometer mb |
| 20260906123100 | 74 | 350 | 6.0 | 10.0 | 0.00 | 0.00 | 0.00 | 89 | 1015.7 |
| 20260906121607 | 74 | 46 | 3.0 | 8.0 | 0.00 | 0.00 | 0.00 | 88 | 1015.7 |
| 20260906114612 | 74 | 33 | 3.0 | 9.0 | 0.00 | 0.00 | 0.00 | 88 | 1015.5 |
| 20260906113055 | 74 | 5 | 5.0 | 10.0 | 0.00 | 0.00 | 0.00 | 88 | 1015.4 |
| 20260906111604 | 75 | 28 | 5.0 | 12.0 | 0.00 | 0.00 | 0.00 | 88 | 1015.2 |
| 20260906110104 | 75 | 15 | 5.0 | 9.0 | 0.00 | 0.00 | 0.00 | 87 | 1015.1 |
| 20260906104555 | 75 | 360 | 3.0 | 9.0 | 0.00 | 0.00 | 0.00 | 87 | 1014.9 |
| 20260906103110 | 76 | 352 | 4.0 | 9.0 | 0.00 | 0.00 | 0.00 | 87 | 1014.9 |
| 20260906101557 | 76 | 355 | 4.0 | 9.0 | 0.00 | 0.00 | 0.00 | 87 | 1014.6 |
| 20260906100104 | 76 | 16 | 4.0 | 9.0 | 0.00 | 0.00 | 0.00 | 87 | 1014.5 |
| 20260906094607 | 77 | 19 | 4.0 | 8.0 | 0.00 | 0.00 | 0.00 | 86 | 1014.3 |
| 20260906093100 | 77 | 17 | 4.0 | 8.0 | 0.00 | 0.00 | 0.00 | 86 | 1014.2 |
| 20260906091601 | 77 | 19 | 3.0 | 9.0 | 0.00 | 0.00 | 0.00 | 85 | 1014.3 |
| 20260906090117 | 78 | 355 | 2.0 | 5.0 | 0.00 | 0.00 | 0.00 | 85 | 1014.1 |
| 20260906084607 | 78 | 5 | 1.0 | 4.0 | 0.00 | 0.00 | 0.00 | 84 | 1013.9 |
| 20260906083056 | 79 | 36 | 2.0 | 8.0 | 0.00 | 0.00 | 0.00 | 84 | 1013.8 |
| 20260906081558 | 79 | 23 | 2.0 | 5.0 | 0.00 | 0.00 | 0.00 | 83 | 1013.6 |
| 20260906080126 | 79 | 39 | 3.0 | 8.0 | 0.00 | 0.00 | 0.00 | 82 | 1013.7 |
| 20260906074610 | 80 | 15 | 3.0 | 8.0 | 0.00 | 0.00 | 0.00 | 81 | 1013.9 |
| 20260906073109 | 80 | 41 | 2.0 | 9.0 | 0.00 | 0.00 | 0.00 | 80 | 1013.9 |
| 20260906071603 | 80 | 24 | 4.0 | 10.0 | 0.00 | 0.00 | 0.00 | 78 | 1013.9 |
| 20260906070106 | 81 | 34 | 3.0 | 8.0 | 0.00 | 0.00 | 0.00 | 77 | 1014.1 |
| 20260906064558 | 81 | 50 | 4.0 | 11.0 | 0.00 | 0.00 | 0.00 | 77 | 1014.2 |
| 20260906063101 | 81 | 15 | 3.0 | 8.0 | 0.00 | 0.00 | 0.00 | 77 | 1014.2 |
| 20260906061558 | 81 | 5 | 3.0 | 8.0 | 0.00 | 0.00 | 0.00 | 76 | 1014.4 |
| 20260906060055 | 81 | 23 | 3.0 | 5.0 | 0.00 | 0.00 | 0.00 | 75 | 1014.3 |
| 20260906054601 | 81 | 27 | 2.0 | 8.0 | 0.00 | 0.00 | 0.00 | 74 | 1014.2 |
| 20260906053058 | 81 | 5 | 3.0 | 8.0 | 0.00 | 0.00 | 0.00 | 73 | 1014.3 |
| 20260906051605 | 81 | 39 | 2.0 | 7.0 | 0.00 | 0.00 | 0.00 | 72 | 1014.2 |
| 20260906050108 | 81 | 11 | 3.0 | 7.0 | 0.00 | 0.00 | 0.00 | 71 | 1014.2 |
| 20260906044556 | 81 | 355 | 2.0 | 5.0 | 0.00 | 0.00 | 0.00 | 70 | 1014.1 |
| 20260906043100 | 81 | 9 | 3.0 | 5.0 | 0.00 | 0.00 | 0.00 | 69 | 1013.9 |
| 20260906041603 | 81 | 346 | 1.0 | 5.0 | 0.00 | 0.00 | 0.00 | 69 | 1013.9 |
| 20260906034620 | 81 | 328 | 2.0 | 4.0 | 0.00 | 0.00 | 0.00 | 68 | 1013.5 |
| 20260906033058 | 81 | 0 | 0.0 | 0.0 | 0.00 | 0.00 | 0.00 | 68 | 1013.5 |
| 20260906031601 | 81 | 0 | 0.0 | 0.0 | 0.00 | 0.00 | 0.00 | 68 | 1013.5 |
| 20260906030100 | 81 | 0 | 0.0 | 0.0 | 0.00 | 0.00 | 0.00 | 68 | 1013.3 |
| 20260906024557 | 81 | 0 | 0.0 | 0.0 | 0.00 | 0.00 | 0.00 | 68 | 1013.2 |
| 20260906023102 | 81 | 0 | 0.0 | 0.0 | 0.00 | 0.00 | 0.00 | 68 | 1013.3 |
| 20260906021607 | 82 | 0 | 0.0 | 0.0 | 0.00 | 0.00 | 0.00 | 68 | 1013.2 |
| 20260906020107 | 82 | 0 | 0.0 | 0.0 | 0.00 | 0.00 | 0.00 | 68 | 1013.0 |
| 20260906014558 | 82 | 0 | 0.0 | 0.0 | 0.00 | 0.00 | 0.00 | 68 | 1012.7 |
| 20260906013105 | 84 | 0 | 0.0 | 0.0 | 0.00 | 0.00 | 0.00 | 65 | 1012.6 |
| 20260906011604 | 85 | 0 | 0.0 | 0.0 | 0.00 | 0.00 | 0.00 | 62 | 1012.6 |
| 20260906010105 | 85 | 227 | 0.0 | 3.0 | 0.00 | 0.00 | 0.00 | 59 | 1012.5 |
| 20260906004603 | 86 | 227 | 1.0 | 4.0 | 0.00 | 0.00 | 0.00 | 59 | 1012.4 |
| 20260906003101 | 86 | 225 | 2.0 | 6.0 | 0.00 | 0.00 | 0.00 | 59 | 1012.2 |
| 20260906001559 | 86 | 215 | 1.0 | 6.0 | 0.00 | 0.00 | 0.00 | 57 | 1012.4 |
| 20260906000111 | 87 | 0 | 4.0 | 8.0 | 0.00 | 0.00 | 0.00 | 57 | 1012.6 |
| 20260905234620 | 87 | 211 | 3.0 | 9.0 | 0.00 | 0.00 | 0.00 | 56 | 1012.7 |
| 20260905233102 | 87 | 221 | 4.0 | 9.0 | 0.00 | 0.00 | 0.00 | 55 | 1012.8 |
| 20260905231605 | 87 | 268 | 4.0 | 10.0 | 0.00 | 0.00 | 0.00 | 55 | 1012.6 |
| 20260905230106 | 88 | 245 | 5.0 | 12.0 | 0.00 | 0.00 | 0.00 | 53 | 1012.8 |
| 20260905224616 | 88 | 213 | 4.0 | 11.0 | 0.00 | 0.00 | 0.00 | 52 | 1012.5 |
| 20260905223100 | 90 | 234 | 5.0 | 17.0 | 0.00 | 0.00 | 0.00 | 50 | 1012.7 |
| 20260905221602 | 91 | 241 | 7.0 | 12.0 | 0.00 | 0.00 | 0.00 | 49 | 1012.4 |
| 20260905220118 | 92 | 203 | 6.0 | 14.0 | 0.00 | 0.00 | 0.00 | 48 | 1012.6 |
| 20260905214603 | 92 | 201 | 4.0 | 12.0 | 0.00 | 0.00 | 0.00 | 49 | 1012.8 |
| 20260905213102 | 91 | 155 | 5.0 | 17.0 | 0.00 | 0.00 | 0.00 | 52 | 1012.7 |
| 20260905211556 | 90 | 202 | 13.0 | 20.0 | 0.00 | 0.00 | 0.00 | 53 | 1012.7 |
| 20260905210109 | 90 | 215 | 9.0 | 17.0 | 0.00 | 0.00 | 0.00 | 53 | 1013.3 |
| 20260905204559 | 94 | 196 | 10.0 | 27.0 | 0.00 | 0.00 | 0.00 | 45 | 1013.3 |
| 20260905203114 | 103 | 207 | 1.0 | 10.0 | 0.00 | 0.00 | 0.00 | 35 | 1012.9 |
| 20260905201603 | 103 | 345 | 2.0 | 5.0 | 0.00 | 0.00 | 0.00 | 38 | 1012.8 |
| 20260905200107 | 102 | 5 | 3.0 | 9.0 | 0.00 | 0.00 | 0.00 | 39 | 1013.1 |
| 20260905194558 | 103 | 355 | 3.0 | 10.0 | 0.00 | 0.00 | 0.00 | 38 | 1013.1 |
| 20260905193103 | 103 | 355 | 4.0 | 9.0 | 0.00 | 0.00 | 0.00 | 40 | 1013.4 |
| 20260905191605 | 102 | 44 | 3.0 | 10.0 | 0.00 | 0.00 | 0.00 | 39 | 1013.5 |
| 20260905184611 | 101 | 24 | 4.0 | 10.0 | 0.00 | 0.00 | 0.00 | 39 | 1014.1 |
| 20260905183057 | 100 | 352 | 3.0 | 12.0 | 0.00 | 0.00 | 0.00 | 41 | 1014.1 |
| 20260905181603 | 99 | 302 | 3.0 | 10.0 | 0.00 | 0.00 | 0.00 | 44 | 1014.2 |
| 20260905180105 | 99 | 360 | 5.0 | 10.0 | 0.00 | 0.00 | 0.00 | 46 | 1014.3 |
| 20260905174604 | 98 | 284 | 4.0 | 9.0 | 0.00 | 0.00 | 0.00 | 47 | 1014.4 |
| 20260905173105 | 98 | 273 | 6.0 | 9.0 | 0.00 | 0.00 | 0.00 | 46 | 1014.6 |
| 20260905171635 | 98 | 277 | 3.0 | 9.0 | 0.00 | 0.00 | 0.00 | 46 | 1014.9 |
| 20260905170107 | 97 | 0 | 2.0 | 9.0 | 0.00 | 0.00 | 0.00 | 48 | 1015.1 |
| 20260905164605 | 97 | 346 | 3.0 | 9.0 | 0.00 | 0.00 | 0.00 | 48 | 1015.2 |
| 20260905163058 | 96 | 254 | 2.0 | 10.0 | 0.00 | 0.00 | 0.00 | 48 | 1015.2 |
| 20260905161601 | 95 | 321 | 2.0 | 9.0 | 0.00 | 0.00 | 0.00 | 48 | 1015.3 |
| 20260905160109 | 93 | 310 | 4.0 | 9.0 | 0.00 | 0.00 | 0.00 | 52 | 1015.4 |
| 20260905154648 | 91 | 281 | 2.0 | 8.0 | 0.00 | 0.00 | 0.00 | 57 | 1015.5 |
| 20260905153104 | 90 | 270 | 2.0 | 5.0 | 0.00 | 0.00 | 0.00 | 61 | 1015.7 |
| 20260905151604 | 88 | 180 | 0.0 | 4.0 | 0.00 | 0.00 | 0.00 | 63 | 1015.7 |
| 20260905150105 | 87 | 0 | 1.0 | 5.0 | 0.00 | 0.00 | 0.00 | 64 | 1015.4 |
| 20260905144610 | 87 | 0 | 0.0 | 5.0 | 0.00 | 0.00 | 0.00 | 63 | 1015.4 |
| 20260905143106 | 87 | 286 | 4.0 | 8.0 | 0.00 | 0.00 | 0.00 | 62 | 1015.4 |
| 20260905141601 | 85 | 188 | 5.0 | 9.0 | 0.00 | 0.00 | 0.00 | 65 | 1015.4 |
| 20260905140105 | 83 | 154 | 3.0 | 7.0 | 0.00 | 0.00 | 0.00 | 68 | 1015.5 |
| 20260905134608 | 82 | 200 | 3.0 | 8.0 | 0.00 | 0.00 | 0.00 | 70 | 1015.5 |
| 20260905133103 | 81 | 178 | 3.0 | 8.0 | 0.00 | 0.00 | 0.00 | 75 | 1015.3 |
| 20260905131559 | 80 | 215 | 2.0 | 6.0 | 0.00 | 0.00 | 0.00 | 78 | 1015.2 |
| 20260905130101 | 80 | 165 | 2.0 | 6.0 | 0.00 | 0.00 | 0.00 | 79 | 1015.4 |
| 20260905124602 | 79 | 191 | 2.0 | 5.0 | 0.00 | 0.00 | 0.00 | 79 | 1015.1 |